Погода в Нонгбуалампху

Таиланд     17°08′06″N   102°26′55″E
темп.,
°C
ветер,
м/с
пор.,
м/с
влажн.,
%
обл.,
%
осадки,
мм/ч
давл.,
гПа
погр.,
м
26 февраля, пт
пт2601:00+26юз22305 0.0 100626
04:00+25зюз12340 0.0 100424
07:00+23всв11390 0.0 100723
10:00+33с11220 0.0 1008663
13:00+37зсз22162 0.0 10052753
16:00+37ююв04135 0.0 10013801
19:00+31вюв22173 0.0 100324
22:00+29зюз11200 0.0 100525
27 февраля, сб
сб2701:00+27зсз11220 0.0 100524
04:00+25ссз23240 0.0 100424
07:00+23сз11300 0.0 100723
10:00+31св34230 0.0 1009574
13:00+37всв21160 0.0 10061975
16:00+37ю13140 0.0 10033598
19:00+31всв23190 0.0 100430
22:00+29вюв342119 0.0 100760
28 февраля, вс
вс2801:00+27вюв393333 0.0 1008234
04:00+26всв265493 0.0 1007320
07:00+25всв236296 0.0 1010177
10:00+30юв344691 0.0 10121117
13:00+35ююз442877 0.0 10082732
16:00+35ю442656 0.0 10062663
19:00+30юв223430 0.0 100728
22:00+29вюв234011 0.0 100959
1 марта, пн
пн101:00+27ююз124620 0.0 100924
04:00+25в114911 0.0 100824
07:00+24ссз12545 0.0 101125
10:00+32сз34340 0.0 1013790
13:00+36зсз33250 0.0 10103021
16:00+34зюз232998 0.0 1008148
19:00+31в113489 0.0 100924
22:00+30в113570 0.0 101124
2 марта, вт
вт201:00+30ссз113685 0.0 101024
04:00+29в1138100 0.0 101024
07:00+27в1244100 0.0 101236
10:00+30ссз114197 0.0 1013356
13:00+36с122875 0.0 10101355
16:00+37св132317 0.0 10072932
19:00+30вюв224037 0.0 100832
22:00+30юв244140 0.0 101199